W7KKE-3 Weather Reports


Display with metric or nautical units.
time (UTC)temp
F
wind
direction
speed
MPH
gust
MPH
rain 1hr
in
rain 24hr
in
rain mn
in
humidity
%
barometer
mb
20170822124449 56 0 0.0 0.0 0.01 0.02 0.02 96 1018.1
20170822123950 56 0 0.0 0.0 0.00 0.01 0.02 96 1018.0
20170822123451 56 0 0.0 0.0 0.00 0.01 0.01 96 1018.0
20170822122450 56 0 0.0 0.0 0.00 0.01 0.01 96 1017.8
20170822121952 56 0 0.0 0.0 0.00 0.01 0.01 96 1017.8
20170822121450 56 0 0.0 0.0 0.00 0.01 0.01 96 1017.9
20170822120950 56 0 0.0 0.0 0.00 0.01 0.01 96 1017.8
20170822115951 56 0 0.0 0.0 0.01 0.01 0.01 96 1017.8
20170822115450 55 0 0.0 0.0 0.01 0.01 0.01 96 1017.7
20170822114450 55 0 0.0 0.0 0.01 0.01 0.01 96 1017.7
20170822113950 55 0 0.0 0.0 0.01 0.01 0.01 96 1017.7
20170822113451 55 0 0.0 0.0 0.01 0.01 0.01 96 1017.6
20170822112950 55 0 0.0 0.0 0.01 0.01 0.01 95 1017.6
20170822111450 55 323 2.0 3.0 0.01 0.01 0.01 95 1017.8
20170822110950 55 310 1.0 3.0 0.01 0.01 0.01 95 1017.8
20170822110451 56 302 0.0 2.0 0.01 0.01 0.01 95 1017.7
20170822105950 56 282 1.0 2.0 0.00 0.01 0.01 95 1017.7
20170822105450 56 0 0.0 0.0 0.00 0.00 0.00 95 1017.7
20170822104953 56 0 0.0 0.0 0.00 0.00 0.00 95 1017.7
20170822104450 56 0 0.0 0.0 0.00 0.00 0.00 95 1017.7
20170822103950 56 0 0.0 0.0 0.00 0.00 0.00 95 1017.7
20170822102450 57 0 0.0 0.0 0.00 0.00 0.00 95 1017.6
20170822101952 57 0 0.0 0.0 0.00 0.00 0.00 95 1017.6
20170822100451 57 0 0.0 0.0 0.00 0.00 0.00 95 1017.4
20170822095950 57 0 0.0 0.0 0.00 0.00 0.00 95 1017.4
20170822095450 56 0 0.0 0.0 0.00 0.00 0.00 95 1017.4
20170822094952 56 0 0.0 0.0 0.00 0.00 0.00 95 1017.4
20170822094450 56 0 0.0 0.0 0.00 0.00 0.00 95 1017.4
20170822093951 56 0 0.0 0.0 0.00 0.00 0.00 95 1017.3
20170822093451 55 0 0.0 0.0 0.00 0.00 0.00 94 1017.3
20170822092452 55 0 0.0 0.0 0.00 0.00 0.00 94 1017.2
20170822091952 55 0 0.0 0.0 0.00 0.00 0.00 94 1017.3
20170822090950 55 0 0.0 2.0 0.00 0.00 0.00 94 1017.1
20170822090451 55 240 0.0 2.0 0.00 0.00 0.00 93 1017.2
20170822085450 55 0 0.0 0.0 0.00 0.00 0.00 93 1017.2
20170822084952 55 0 0.0 0.0 0.00 0.00 0.00 93 1017.1
20170822084450 55 0 0.0 0.0 0.00 0.00 0.00 93 1017.1
20170822083451 56 0 0.0 3.0 0.00 0.00 0.00 92 1017.2
20170822082950 56 163 0.0 3.0 0.00 0.00 0.00 92 1017.1
20170822082450 57 226 0.0 2.0 0.00 0.00 0.00 92 1017.1
20170822081952 57 210 1.0 8.0 0.00 0.00 0.00 92 1017.0
20170822080950 58 310 5.0 8.0 0.00 0.00 0.00 93 1016.9
20170822080451 57 316 2.0 7.0 0.00 0.00 0.00 93 1016.8
20170822075450 57 317 5.0 7.0 0.00 0.00 0.00 92 1016.7
20170822074952 57 0 0.0 3.0 0.00 0.00 0.00 92 1016.7
20170822074450 57 0 0.0 3.0 0.00 0.00 0.00 92 1016.6
20170822073950 57 106 1.0 3.0 0.00 0.00 0.00 92 1016.6
20170822073451 57 152 0.0 0.0 0.00 0.00 0.00 92 1016.6
20170822072950 57 0 0.0 0.0 0.00 0.00 0.00 92 1016.6
20170822072450 57 0 0.0 0.0 0.00 0.00 0.00 91 1016.6
20170822071953 57 0 0.0 0.0 0.00 0.00 0.00 91 1016.6
20170822071450 57 0 0.0 0.0 0.00 0.00 0.00 91 1016.5
20170822070950 57 0 0.0 0.0 0.00 0.00 0.00 91 1016.4
20170822070451 57 0 0.0 0.0 0.00 0.00 0.00 91 1016.3
20170822065950 57 0 0.0 0.0 0.00 0.00 0.00 91 1016.3
20170822064952 57 0 0.0 0.0 0.00 0.00 0.00 91 1016.3
20170822064450 57 0 0.0 0.0 0.00 0.00 0.00 91 1016.3
20170822063950 57 0 0.0 0.0 0.00 0.00 0.00 91 1016.3
20170822063451 57 0 0.0 0.0 0.00 0.00 0.00 91 1016.3
20170822062950 57 0 0.0 0.0 0.00 0.00 0.00 90 1016.3
20170822062450 57 0 0.0 0.0 0.00 0.00 0.00 90 1016.3
20170822060950 57 0 0.0 0.0 0.00 0.00 0.00 90 1016.2
20170822060451 57 0 0.0 0.0 0.00 0.00 0.00 90 1016.2
20170822055950 57 0 0.0 0.0 0.00 0.00 0.00 90 1016.1
20170822055450 57 0 0.0 0.0 0.00 0.00 0.00 90 1016.1
20170822054952 57 0 0.0 0.0 0.00 0.00 0.00 90 1016.1
20170822054450 57 0 0.0 0.0 0.00 0.00 0.00 90 1016.1
20170822053950 57 0 0.0 1.0 0.00 0.00 0.00 90 1016.0
20170822053451 57 0 0.0 1.0 0.00 0.00 0.00 90 1015.9
20170822052950 57 0 0.0 1.0 0.00 0.00 0.00 90 1016.0
20170822050451 57 299 4.0 6.0 0.00 0.00 0.00 89 1016.1
20170822045950 57 308 0.0 4.0 0.00 0.00 0.00 89 1015.9
20170822045450 57 340 0.0 9.0 0.00 0.00 0.00 89 1016.0
20170822044449 58 302 3.0 9.0 0.00 0.00 0.00 88 1015.9
20170822043949 58 289 5.0 11.0 0.00 0.00 0.00 88 1015.9
20170822043450 59 289 4.0 11.0 0.00 0.00 0.00 88 1015.8
20170822042950 59 322 7.0 11.0 0.00 0.00 0.00 88 1015.8
20170822042449 59 296 8.0 11.0 0.00 0.00 0.00 87 1015.7
20170822040949 60 302 6.0 12.0 0.00 0.00 0.00 86 1015.6
20170822040450 59 305 6.0 9.0 0.00 0.00 0.00 86 1015.6
20170822035949 60 333 5.0 10.0 0.00 0.00 0.00 86 1015.5
20170822034952 60 281 7.0 10.0 0.00 0.00 0.00 84 1015.4
20170822034449 60 331 7.0 14.0 0.00 0.00 0.00 84 1015.5
20170822031950 62 327 8.0 16.0 0.00 0.00 0.00 81 1015.3
20170822031451 62 309 8.0 16.0 0.00 0.00 0.00 80 1015.2
20170822030949 63 292 8.0 16.0 0.00 0.00 0.00 78 1015.2
20170822030449 63 303 7.0 16.0 0.00 0.00 0.00 77 1015.2
20170822025949 63 333 11.0 16.0 0.00 0.00 0.00 76 1015.3
20170822025449 64 295 10.0 16.0 0.00 0.00 0.00 74 1015.2
20170822024952 65 310 9.0 16.0 0.00 0.00 0.00 71 1015.2
20170822024449 65 308 7.0 17.0 0.00 0.00 0.00 68 1015.1
20170822023949 65 309 11.0 17.0 0.00 0.00 0.00 66 1015.1
20170822023449 66 294 9.0 17.0 0.00 0.00 0.00 64 1015.0
20170822022949 66 301 10.0 16.0 0.00 0.00 0.00 62 1015.0
20170822022449 67 317 8.0 15.0 0.00 0.00 0.00 62 1015.0
20170822021951 67 280 8.0 13.0 0.00 0.00 0.00 61 1014.9
20170822015949 67 306 10.0 18.0 0.00 0.00 0.00 58 1014.9
20170822015449 68 317 10.0 18.0 0.00 0.00 0.00 57 1015.0
20170822014949 69 306 11.0 16.0 0.00 0.00 0.00 56 1015.0
20170822014449 69 301 9.0 16.0 0.00 0.00 0.00 56 1014.9
20170822013949 70 288 8.0 16.0 0.00 0.00 0.00 55 1015.0
20170822012949 70 316 7.0 15.0 0.00 0.00 0.00 56 1015.0
20170822012449 71 309 7.0 15.0 0.00 0.00 0.00 55 1015.0
20170822011949 71 280 8.0 13.0 0.00 0.00 0.00 55 1015.0
20170822011449 71 303 7.0 15.0 0.00 0.00 0.00 56 1015.0
20170822010949 71 303 8.0 15.0 0.00 0.00 0.00 57 1015.0
20170822010449 70 310 7.0 15.0 0.00 0.00 0.00 57 1015.1
20170822005949 71 296 10.0 15.0 0.00 0.00 0.00 57 1015.1
20170822005449 70 289 7.0 19.0 0.00 0.00 0.00 58 1015.1
20170822004949 70 310 9.0 19.0 0.00 0.00 0.00 57 1015.1
20170822004449 71 285 9.0 19.0 0.00 0.00 0.00 57 1015.1
20170822003949 70 285 11.0 15.0 0.00 0.00 0.00 57 1015.2
20170822003449 71 317 11.0 20.0 0.00 0.00 0.00 57 1015.1
20170822002949 71 315 11.0 20.0 0.00 0.00 0.00 57 1015.1
20170822002449 71 316 12.0 20.0 0.00 0.00 0.00 57 1015.1
20170822001950 71 295 12.0 19.0 0.00 0.00 0.00 57 1015.1
20170822001449 71 308 11.0 18.0 0.00 0.00 0.00 57 1015.1
20170822000949 71 315 9.0 17.0 0.00 0.00 0.00 57 1015.1
20170822000449 71 273 10.0 17.0 0.00 0.00 0.00 58 1015.2
20170821235949 71 281 10.0 19.0 0.00 0.00 0.00 58 1015.2
20170821235449 71 317 12.0 19.0 0.00 0.00 0.00 58 1015.2
20170821234449 71 292 10.0 19.0 0.00 0.00 0.00 59 1015.3
20170821233949 70 312 13.0 23.0 0.00 0.00 0.00 59 1015.3
20170821233449 70 288 9.0 23.0 0.00 0.00 0.00 60 1015.2
20170821232949 70 313 12.0 23.0 0.00 0.00 0.00 59 1015.4
20170821232450 70 326 13.0 21.0 0.00 0.00 0.00 59 1015.4
20170821231950 70 301 11.0 18.0 0.00 0.00 0.00 59 1015.4
20170821231449 70 301 10.0 17.0 0.00 0.00 0.00 59 1015.5
20170821230949 70 305 11.0 20.0 0.00 0.00 0.00 59 1015.5
20170821224949 70 313 11.0 22.0 0.00 0.00 0.00 59 1015.8
20170821224448 70 310 11.0 22.0 0.00 0.00 0.00 60 1015.9
20170821223449 70 310 13.0 22.0 0.00 0.00 0.00 59 1016.0
20170821222948 70 313 13.0 22.0 0.00 0.00 0.00 58 1016.0
20170821221949 70 298 11.0 19.0 0.00 0.00 0.00 58 1016.0
20170821221448 70 310 9.0 19.0 0.00 0.00 0.00 58 1016.1
20170821220949 70 288 11.0 19.0 0.00 0.00 0.00 58 1016.2
20170821220449 70 285 9.0 19.0 0.00 0.00 0.00 58 1016.2
20170821215948 70 303 12.0 19.0 0.00 0.00 0.00 59 1016.3
20170821215448 70 298 10.0 19.0 0.00 0.00 0.00 59 1016.3
20170821214949 70 309 11.0 18.0 0.00 0.00 0.00 58 1016.4
20170821214448 71 324 11.0 19.0 0.00 0.00 0.00 59 1016.4
20170821213948 70 308 9.0 19.0 0.00 0.00 0.00 61 1016.4
20170821213449 70 305 10.0 19.0 0.00 0.00 0.00 65 1016.4
20170821212949 69 296 12.0 19.0 0.00 0.00 0.00 66 1016.5
20170821212449 69 326 12.0 22.0 0.00 0.00 0.00 68 1016.5
20170821211449 68 305 11.0 22.0 0.00 0.00 0.00 70 1016.6
20170821210949 67 324 12.0 22.0 0.00 0.00 0.00 71 1016.7
20170821210449 66 309 10.0 22.0 0.00 0.00 0.00 72 1016.8
20170821205949 66 317 13.0 22.0 0.00 0.00 0.00 72 1016.7
20170821205448 66 295 14.0 24.0 0.00 0.00 0.00 73 1016.8
20170821204449 65 315 15.0 24.0 0.00 0.00 0.00 73 1016.9
20170821203948 65 316 16.0 23.0 0.00 0.00 0.00 72 1016.9
20170821203449 66 292 14.0 25.0 0.00 0.00 0.00 72 1017.0
20170821202448 66 308 12.0 25.0 0.00 0.00 0.00 74 1017.1
20170821201949 66 310 11.0 22.0 0.00 0.00 0.00 75 1017.2
20170821201448 66 295 13.0 22.0 0.00 0.00 0.00 75 1017.3
20170821200948 65 294 14.0 24.0 0.00 0.00 0.00 75 1017.3
20170821200450 66 309 14.0 24.0 0.00 0.00 0.00 75 1017.4
20170821195449 67 320 14.0 23.0 0.00 0.00 0.00 74 1017.4
20170821194949 67 317 12.0 22.0 0.00 0.00 0.00 76 1017.5
20170821193950 67 301 13.0 22.0 0.00 0.00 0.00 80 1017.6
20170821192449 65 320 11.0 20.0 0.00 0.00 0.00 83 1017.7
20170821190949 65 302 10.0 18.0 0.00 0.00 0.00 84 1017.9
20170821185449 65 312 10.0 15.0 0.00 0.00 0.00 84 1018.0
20170821184952 65 299 10.0 15.0 0.00 0.00 0.00 85 1018.1
20170821183949 64 323 5.0 9.0 0.00 0.00 0.00 88 1018.2
20170821182951 63 266 0.0 3.0 0.00 0.00 0.00 91 1018.3
20170821181451 60 284 3.0 6.0 0.00 0.00 0.00 94 1018.4
20170821180950 60 277 4.0 5.0 0.00 0.00 0.00 95 1018.3
20170821174952 57 275 0.0 7.0 0.00 0.00 0.00 95 1018.3
20170821174449 57 316 0.0 7.0 0.00 0.00 0.00 95 1018.4
20170821172949 57 313 0.0 1.0 0.00 0.00 0.00 94 1018.4
20170821172449 57 308 0.0 1.0 0.00 0.00 0.00 94 1018.4
20170821171450 59 295 0.0 4.0 0.00 0.00 0.00 94 1018.3
20170821170950 59 302 1.0 4.0 0.00 0.00 0.00 94 1018.4
20170821170450 59 282 2.0 4.0 0.00 0.00 0.00 95 1018.4
20170821164951 59 282 4.0 7.0 0.00 0.00 0.00 95 1018.4
20170821163450 58 264 2.0 5.0 0.00 0.00 0.00 96 1018.5
20170821160950 57 0 0.0 0.0 0.00 0.00 0.00 97 1018.6
20170821160450 57 0 0.0 1.0 0.00 0.00 0.00 97 1018.5
20170821151951 54 0 0.0 0.0 0.00 0.00 0.00 96 1018.9
20170821151449 54 0 0.0 0.0 0.00 0.00 0.00 96 1018.9
20170821150949 54 0 0.0 0.0 0.00 0.00 0.00 96 1018.9